User: anonymous   Login
Location: Unspecified
(0.0000°N, 0.0000°E)
Time: 20:24:06
(UTC+01:00)
Language:

Centaur AC-64 - Orbit

View from above orbital plane
View from above orbital plane
View from above satellite
View from above satellite

Ground track
Ground track

The orbit data is extracted from the following two-line orbital elements,

1 15874U 85055B   17054.91235833  .00001245  00000-0  42437-3 0  9994
2 15874  22.9495 157.6511 6576412  84.8081 341.5449  3.18997905326837
Epoch (UTC): 23 February 2017 21:53:47
Eccentricity: 0.6576412
inclination: 22.9495°
perigee height: 295 km
apogee height: 25934 km
right ascension of ascending node: 157.6511°
argument of perigee: 84.8081°
revolutions per day: 3.18997905
mean anomaly at epoch: 341.5449°
orbit number at epoch: 32683

The dashed part of the orbit path shows where the satellite is in the earth's shadow,  

DLR